星链-36438(STARLINK-36438)

导读 | 豆包AI

STARLINK-36438是美国SpaceX星链星座旗下的卫星,于2026年1月30日成功发射,星链项目旨在构建全球卫星互联网星座,为全球不同地区提供高速宽带网络服务。该卫星入轨后将与其他星链卫星组网,进一步扩大星链网络的覆盖范围,提升通信服务的稳定性与容量,助力全球卫星互联网服务布局。

基本信息
目录编号:
67625
目录名称:
STARLINK-36438
国际标识:
2026-020J
轨道中心:
EARTH
卫星名称:
星链-36438
卫星全名:
星链-36438(STARLINK-36438)
卫星状态:
在轨 (已飞行115 天)
发射日期:
2026-01-30 UTC
国别 :
美国 (US)
星等 :
--
轨道信息
数据来源 国际轨道数据
星历时间: 2026-05-25T09:33:20+0800
7小时前
查看轨道信息
半长轴: 6861.079km
偏心率: 0.0000649
轨道倾角: 43.001°
近地点辐角 233.015°
升交点赤经 68.505°
平近点角 127.064°
近地点: 482.496km
远地点: 483.388km
周期: 94.265分钟
每日圈数: 15.276159
详细信息
固有亮度:
5
最大亮度:
2.5
卫星平台:
Starlink V1.0
覆盖范围:
全球
运营商:
太空探索技术公司
运营商所在国:
美国
制造商(研发单位):
太空探索技术公司
制造商所在国:
美国
使用方式:
暂无
卫星简介
Starlink 计划是 SpaceX 推出的全球卫星互联网项目,通过发射低轨道卫星,为全球尤其是偏远地区提供高速、低延迟的互联网服务。自 2019 年起,Starlink 已部署数千颗卫星,旨在缩小全球数字鸿沟,推动互联网普及。该项目还为军事、航空等行业提供通信支持,带来广泛经济效益。
2D轨道图
3D轨道图
轨道高度分析图
轨道倾角分析图
轨道综合分析图
查看轨道综合分析图